TimeMDT,TemperatureF,Dew PointF,Humidity,Sea Level PressureIn,VisibilityMPH,Wind Direction,Wind SpeedMPH,Gust SpeedMPH,PrecipitationIn,Events,Conditions,WindDirDegrees,DateUTC
12:53 AM,45.0,21.0,39,29.94,10.0,SE,5.8,-,N/A,,Clear,130,2013-04-03 06:53:00
1:53 AM,45.0,21.0,39,29.94,10.0,ESE,6.9,-,N/A,,Clear,110,2013-04-03 07:53:00
2:53 AM,44.1,21.9,42,29.94,10.0,Calm,Calm,-,N/A,,Clear,0,2013-04-03 08:53:00
3:53 AM,39.9,21.9,49,29.96,10.0,Calm,Calm,-,N/A,,Mostly Cloudy,0,2013-04-03 09:53:00
4:53 AM,39.0,21.9,50,29.96,10.0,South,3.5,-,N/A,,Clear,180,2013-04-03 10:53:00
5:53 AM,36.0,21.9,57,29.98,10.0,Calm,Calm,-,N/A,,Clear,0,2013-04-03 11:53:00
6:53 AM,37.9,21.0,51,29.99,10.0,Calm,Calm,-,N/A,,Clear,0,2013-04-03 12:53:00
7:53 AM,37.9,21.0,51,30.02,10.0,Calm,Calm,-,N/A,,Clear,0,2013-04-03 13:53:00
8:53 AM,45.0,21.9,40,30.03,10.0,NW,4.6,-,N/A,,Mostly Cloudy,320,2013-04-03 14:53:00
9:53 AM,51.1,21.0,31,30.02,10.0,SSE,3.5,-,N/A,,Overcast,160,2013-04-03 15:53:00
10:53 AM,55.9,21.0,26,30.01,10.0,Variable,3.5,-,N/A,,Unknown,0,2013-04-03 16:53:00
11:53 AM,60.1,19.9,21,30.00,-9999.0,North,8.1,-,N/A,,Unknown,350,2013-04-03 17:53:00
12:53 PM,64.9,24.1,21,29.99,10.0,NNW,12.7,-,N/A,,Clear,330,2013-04-03 18:53:00
1:53 PM,64.9,23.0,20,29.99,10.0,NNW,19.6,23.0,N/A,,Clear,340,2013-04-03 19:53:00
2:53 PM,66.0,19.9,17,29.99,10.0,NW,20.7,26.5,N/A,,Clear,320,2013-04-03 20:53:00
3:53 PM,64.9,18.0,16,29.99,10.0,NNW,17.3,-,N/A,,Clear,340,2013-04-03 21:53:00
4:53 PM,64.9,19.9,18,29.99,10.0,NNW,13.8,-,N/A,,Clear,340,2013-04-03 22:53:00
5:53 PM,64.9,21.0,19,29.99,10.0,North,8.1,-,N/A,,Clear,350,2013-04-03 23:53:00
6:53 PM,63.0,21.0,20,30.01,10.0,NNW,9.2,-,N/A,,Overcast,330,2013-04-04 00:53:00
7:53 PM,61.0,24.1,24,30.04,-9999.0,WNW,16.1,24.2,N/A,,Unknown,300,2013-04-04 01:53:00
8:53 PM,55.0,26.1,33,30.04,10.0,NW,5.8,-,N/A,,Overcast,310,2013-04-04 02:53:00
9:53 PM,51.1,26.1,38,30.05,10.0,Calm,Calm,-,N/A,,Clear,0,2013-04-04 03:53:00
10:53 PM,48.9,26.1,41,30.04,-9999.0,North,-9999.0,-,N/A,,Unknown,0,2013-04-04 04:53:00
11:53 PM,46.0,26.1,46,30.04,10.0,SE,3.5,-,N/A,,Clear,140,2013-04-04 05:53:00